#datetime,building,power
2022-05-09T00:00:00,pst,16.01
2022-05-09T00:01:00,pst,16.11
2022-05-09T00:02:00,pst,16.37
2022-05-09T00:03:00,pst,16.01
2022-05-09T00:04:00,pst,16.22
2022-05-09T00:05:00,pst,16.06
2022-05-09T00:06:00,pst,17.31
2022-05-09T00:07:00,pst,17.26
2022-05-09T00:08:00,pst,17.37
2022-05-09T00:09:00,pst,17.34
2022-05-09T00:10:00,pst,16.01
2022-05-09T00:11:00,pst,15.83
2022-05-09T00:12:00,pst,15.86
2022-05-09T00:13:00,pst,15.91
2022-05-09T00:14:00,pst,15.97
2022-05-09T00:15:00,pst,15.87
2022-05-09T00:16:00,pst,15.87
2022-05-09T00:17:00,pst,15.85
2022-05-09T00:18:00,pst,15.75
2022-05-09T00:19:00,pst,15.75
2022-05-09T00:20:00,pst,15.75
2022-05-09T00:21:00,pst,15.71
2022-05-09T00:22:00,pst,15.83
2022-05-09T00:23:00,pst,15.71
2022-05-09T00:24:00,pst,15.77
2022-05-09T00:25:00,pst,15.93
2022-05-09T00:26:00,pst,15.73
2022-05-09T00:27:00,pst,16.59
2022-05-09T00:28:00,pst,16.73
2022-05-09T00:29:00,pst,16.50
2022-05-09T00:30:00,pst,16.53
2022-05-09T00:31:00,pst,16.87
2022-05-09T00:32:00,pst,16.76
2022-05-09T00:33:00,pst,16.75
2022-05-09T00:34:00,pst,16.76
2022-05-09T00:35:00,pst,16.62
2022-05-09T00:36:00,pst,16.65
2022-05-09T00:37:00,pst,16.24
2022-05-09T00:38:00,pst,16.13
2022-05-09T00:39:00,pst,16.00
2022-05-09T00:40:00,pst,16.00
2022-05-09T00:41:00,pst,15.71
2022-05-09T00:42:00,pst,15.78
2022-05-09T00:43:00,pst,15.98
2022-05-09T00:44:00,pst,15.89
2022-05-09T00:45:00,pst,15.97
2022-05-09T00:46:00,pst,16.09
2022-05-09T00:47:00,pst,15.91
2022-05-09T00:48:00,pst,15.95
2022-05-09T00:49:00,pst,15.87
2022-05-09T00:50:00,pst,15.90
2022-05-09T00:51:00,pst,15.89
2022-05-09T00:52:00,pst,15.86
2022-05-09T00:53:00,pst,15.96
2022-05-09T00:54:00,pst,15.99
2022-05-09T00:55:00,pst,16.04
2022-05-09T00:56:00,pst,16.04
2022-05-09T00:57:00,pst,16.01
2022-05-09T00:58:00,pst,16.16
2022-05-09T00:59:00,pst,16.25
2022-05-09T01:00:00,pst,16.27
2022-05-09T01:01:00,pst,16.36
2022-05-09T01:02:00,pst,17.06
2022-05-09T01:03:00,pst,16.48
2022-05-09T01:04:00,pst,16.49
2022-05-09T01:05:00,pst,17.09
2022-05-09T01:06:00,pst,17.10
2022-05-09T01:07:00,pst,17.10
2022-05-09T01:08:00,pst,16.98
2022-05-09T01:09:00,pst,16.84
2022-05-09T01:10:00,pst,16.81
2022-05-09T01:11:00,pst,16.73
2022-05-09T01:12:00,pst,16.81
2022-05-09T01:13:00,pst,16.64
2022-05-09T01:14:00,pst,16.28
2022-05-09T01:15:00,pst,15.95
2022-05-09T01:16:00,pst,15.98
2022-05-09T01:17:00,pst,15.99
2022-05-09T01:18:00,pst,15.96
2022-05-09T01:19:00,pst,15.95
2022-05-09T01:20:00,pst,15.98
2022-05-09T01:21:00,pst,15.98
2022-05-09T01:22:00,pst,16.12
2022-05-09T01:23:00,pst,16.06
2022-05-09T01:24:00,pst,16.05
2022-05-09T01:25:00,pst,16.26
2022-05-09T01:26:00,pst,16.28
2022-05-09T01:27:00,pst,17.27
2022-05-09T01:28:00,pst,17.23
2022-05-09T01:29:00,pst,17.23
2022-05-09T01:30:00,pst,17.27
2022-05-09T01:31:00,pst,17.02
2022-05-09T01:32:00,pst,16.97
2022-05-09T01:33:00,pst,17.11
2022-05-09T01:34:00,pst,16.95
2022-05-09T01:35:00,pst,16.95
2022-05-09T01:36:00,pst,17.14
2022-05-09T01:37:00,pst,16.94
2022-05-09T01:38:00,pst,16.79
2022-05-09T01:39:00,pst,16.80
2022-05-09T01:40:00,pst,16.09
2022-05-09T01:41:00,pst,16.10
2022-05-09T01:42:00,pst,16.11
2022-05-09T01:43:00,pst,16.02
2022-05-09T01:44:00,pst,15.94
2022-05-09T01:45:00,pst,16.07
2022-05-09T01:46:00,pst,16.05
2022-05-09T01:47:00,pst,15.77
2022-05-09T01:48:00,pst,15.79
2022-05-09T01:49:00,pst,15.87
2022-05-09T01:50:00,pst,15.79
2022-05-09T01:51:00,pst,15.94
2022-05-09T01:52:00,pst,15.94
2022-05-09T01:53:00,pst,15.82
2022-05-09T01:54:00,pst,15.85
2022-05-09T01:55:00,pst,15.78
2022-05-09T01:56:00,pst,15.71
2022-05-09T01:57:00,pst,15.68
2022-05-09T01:58:00,pst,15.79
2022-05-09T01:59:00,pst,15.79
2022-05-09T02:00:00,pst,15.83
2022-05-09T02:01:00,pst,15.94
2022-05-09T02:02:00,pst,15.92
2022-05-09T02:03:00,pst,15.97
2022-05-09T02:04:00,pst,15.96
2022-05-09T02:05:00,pst,15.94
2022-05-09T02:06:00,pst,15.92
2022-05-09T02:07:00,pst,15.88
2022-05-09T02:08:00,pst,24.65
2022-05-09T02:09:00,pst,24.48
2022-05-09T02:10:00,pst,24.26
2022-05-09T02:11:00,pst,15.65
2022-05-09T02:12:00,pst,15.81
2022-05-09T02:13:00,pst,15.92
2022-05-09T02:14:00,pst,15.90
2022-05-09T02:15:00,pst,16.12
2022-05-09T02:16:00,pst,16.56
2022-05-09T02:17:00,pst,16.33
2022-05-09T02:18:00,pst,16.23
2022-05-09T02:19:00,pst,16.22
2022-05-09T02:20:00,pst,16.31
2022-05-09T02:21:00,pst,16.28
2022-05-09T02:22:00,pst,16.27
2022-05-09T02:23:00,pst,16.22
2022-05-09T02:24:00,pst,16.25
2022-05-09T02:25:00,pst,15.58
2022-05-09T02:26:00,pst,15.58
2022-05-09T02:27:00,pst,15.60
2022-05-09T02:28:00,pst,15.63
2022-05-09T02:29:00,pst,15.63
2022-05-09T02:30:00,pst,15.54
2022-05-09T02:31:00,pst,15.48
2022-05-09T02:32:00,pst,15.45
2022-05-09T02:33:00,pst,15.44
2022-05-09T02:34:00,pst,15.34
2022-05-09T02:35:00,pst,15.35
2022-05-09T02:36:00,pst,15.19
2022-05-09T02:37:00,pst,15.22
2022-05-09T02:38:00,pst,15.33
2022-05-09T02:39:00,pst,15.39
2022-05-09T02:40:00,pst,15.40
2022-05-09T02:41:00,pst,15.39
2022-05-09T02:42:00,pst,15.29
2022-05-09T02:43:00,pst,15.27
2022-05-09T02:44:00,pst,15.22
2022-05-09T02:45:00,pst,15.19
2022-05-09T02:46:00,pst,15.20
2022-05-09T02:47:00,pst,15.23
2022-05-09T02:48:00,pst,15.32
2022-05-09T02:49:00,pst,15.58
2022-05-09T02:50:00,pst,15.53
2022-05-09T02:51:00,pst,15.51
2022-05-09T02:52:00,pst,16.22
2022-05-09T02:53:00,pst,16.26
2022-05-09T02:54:00,pst,16.14
2022-05-09T02:55:00,pst,16.82
2022-05-09T02:56:00,pst,16.28
2022-05-09T02:57:00,pst,16.26
2022-05-09T02:58:00,pst,16.16
2022-05-09T02:59:00,pst,16.18
2022-05-09T03:00:00,pst,16.24
2022-05-09T03:01:00,pst,15.47
2022-05-09T03:02:00,pst,15.60
2022-05-09T03:03:00,pst,15.59
2022-05-09T03:04:00,pst,15.70
2022-05-09T03:05:00,pst,15.64
2022-05-09T03:06:00,pst,15.66
2022-05-09T03:07:00,pst,15.47
2022-05-09T03:08:00,pst,15.62
2022-05-09T03:09:00,pst,15.50
2022-05-09T03:10:00,pst,15.43
2022-05-09T03:11:00,pst,15.43
2022-05-09T03:12:00,pst,15.34
2022-05-09T03:13:00,pst,15.30
2022-05-09T03:14:00,pst,15.29
2022-05-09T03:15:00,pst,15.24
2022-05-09T03:16:00,pst,15.24
2022-05-09T03:17:00,pst,15.31
2022-05-09T03:18:00,pst,15.41
2022-05-09T03:19:00,pst,15.40
2022-05-09T03:20:00,pst,15.44
2022-05-09T03:21:00,pst,15.39
2022-05-09T03:22:00,pst,15.37
2022-05-09T03:23:00,pst,15.41
2022-05-09T03:24:00,pst,15.48
2022-05-09T03:25:00,pst,15.52
2022-05-09T03:26:00,pst,15.63
2022-05-09T03:27:00,pst,16.14
2022-05-09T03:28:00,pst,16.19
2022-05-09T03:29:00,pst,16.16
2022-05-09T03:30:00,pst,16.12
2022-05-09T03:31:00,pst,16.20
2022-05-09T03:32:00,pst,16.12
2022-05-09T03:33:00,pst,15.88
2022-05-09T03:34:00,pst,15.86
2022-05-09T03:35:00,pst,15.90
2022-05-09T03:36:00,pst,15.26
2022-05-09T03:37:00,pst,15.41
2022-05-09T03:38:00,pst,15.42
2022-05-09T03:39:00,pst,15.42
2022-05-09T03:40:00,pst,15.38
2022-05-09T03:41:00,pst,15.36
2022-05-09T03:42:00,pst,15.36
2022-05-09T03:43:00,pst,15.31
2022-05-09T03:44:00,pst,15.31
2022-05-09T03:45:00,pst,15.30
2022-05-09T03:46:00,pst,15.29
2022-05-09T03:47:00,pst,15.33
2022-05-09T03:48:00,pst,15.48
2022-05-09T03:49:00,pst,15.43
2022-05-09T03:50:00,pst,15.43
2022-05-09T03:51:00,pst,15.43
2022-05-09T03:52:00,pst,15.41
2022-05-09T03:53:00,pst,15.37
2022-05-09T03:54:00,pst,15.40
2022-05-09T03:55:00,pst,15.38
2022-05-09T03:56:00,pst,15.40
2022-05-09T03:57:00,pst,15.39
2022-05-09T03:58:00,pst,15.29
2022-05-09T03:59:00,pst,15.28
2022-05-09T04:00:00,pst,15.48
2022-05-09T04:01:00,pst,16.19
2022-05-09T04:02:00,pst,16.20
2022-05-09T04:03:00,pst,16.04
2022-05-09T04:04:00,pst,16.10
2022-05-09T04:05:00,pst,16.07
2022-05-09T04:06:00,pst,16.10
2022-05-09T04:07:00,pst,16.15
2022-05-09T04:08:00,pst,16.13
2022-05-09T04:09:00,pst,16.22
2022-05-09T04:10:00,pst,16.04
2022-05-09T04:11:00,pst,15.39
2022-05-09T04:12:00,pst,15.53
2022-05-09T04:13:00,pst,15.44
2022-05-09T04:14:00,pst,15.41
2022-05-09T04:15:00,pst,15.63
2022-05-09T04:16:00,pst,15.51
2022-05-09T04:17:00,pst,15.68
2022-05-09T04:18:00,pst,15.57
2022-05-09T04:19:00,pst,15.54
2022-05-09T04:20:00,pst,15.65
2022-05-09T04:21:00,pst,15.61
2022-05-09T04:22:00,pst,15.59
2022-05-09T04:23:00,pst,15.41
2022-05-09T04:24:00,pst,15.28
2022-05-09T04:25:00,pst,15.28
2022-05-09T04:26:00,pst,15.29
2022-05-09T04:27:00,pst,15.84
2022-05-09T04:28:00,pst,15.32
2022-05-09T04:29:00,pst,15.31
2022-05-09T04:30:00,pst,15.27
2022-05-09T04:31:00,pst,15.26
2022-05-09T04:32:00,pst,15.10
2022-05-09T04:33:00,pst,15.08
2022-05-09T04:34:00,pst,15.08
2022-05-09T04:35:00,pst,15.73
2022-05-09T04:36:00,pst,15.75
2022-05-09T04:37:00,pst,15.72
2022-05-09T04:38:00,pst,15.84
2022-05-09T04:39:00,pst,24.73
2022-05-09T04:40:00,pst,24.54
2022-05-09T04:41:00,pst,24.38
2022-05-09T04:42:00,pst,24.28
2022-05-09T04:43:00,pst,15.86
2022-05-09T04:44:00,pst,15.19
2022-05-09T04:45:00,pst,15.36
2022-05-09T04:46:00,pst,15.51
2022-05-09T04:47:00,pst,15.49
2022-05-09T04:48:00,pst,15.47
2022-05-09T04:49:00,pst,15.49
2022-05-09T04:50:00,pst,15.36
2022-05-09T04:51:00,pst,15.36
2022-05-09T04:52:00,pst,15.41
2022-05-09T04:53:00,pst,15.37
2022-05-09T04:54:00,pst,15.38
2022-05-09T04:55:00,pst,15.47
2022-05-09T04:56:00,pst,15.45
2022-05-09T04:57:00,pst,15.61
2022-05-09T04:58:00,pst,15.52
2022-05-09T04:59:00,pst,15.54
2022-05-09T05:00:00,pst,15.84
2022-05-09T05:01:00,pst,15.74
2022-05-09T05:02:00,pst,15.72
2022-05-09T05:03:00,pst,15.71
2022-05-09T05:04:00,pst,15.74
2022-05-09T05:05:00,pst,15.74
2022-05-09T05:06:00,pst,15.76
2022-05-09T05:07:00,pst,16.40
2022-05-09T05:08:00,pst,16.49
2022-05-09T05:09:00,pst,16.48
2022-05-09T05:10:00,pst,16.60
2022-05-09T05:11:00,pst,16.13
2022-05-09T05:12:00,pst,16.06
2022-05-09T05:13:00,pst,16.06
2022-05-09T05:14:00,pst,16.02
2022-05-09T05:15:00,pst,15.83
2022-05-09T05:16:00,pst,15.27
2022-05-09T05:17:00,pst,15.27
2022-05-09T05:18:00,pst,15.25
2022-05-09T05:19:00,pst,15.25
2022-05-09T05:20:00,pst,15.18
2022-05-09T05:21:00,pst,15.20
2022-05-09T05:22:00,pst,15.15
2022-05-09T05:23:00,pst,15.16
2022-05-09T05:24:00,pst,15.34
2022-05-09T05:25:00,pst,15.19
2022-05-09T05:26:00,pst,9.20
2022-05-09T05:27:00,pst,9.28
2022-05-09T05:28:00,pst,9.35
2022-05-09T05:29:00,pst,9.43
2022-05-09T05:30:00,pst,9.42
2022-05-09T05:31:00,pst,9.40
2022-05-09T05:32:00,pst,9.40
2022-05-09T05:33:00,pst,9.40
2022-05-09T05:34:00,pst,9.39
2022-05-09T05:35:00,pst,9.36
2022-05-09T05:36:00,pst,9.36
2022-05-09T05:37:00,pst,9.47
2022-05-09T05:38:00,pst,9.45
2022-05-09T05:39:00,pst,9.45
2022-05-09T05:40:00,pst,10.09
2022-05-09T05:41:00,pst,10.00
2022-05-09T05:42:00,pst,10.01
2022-05-09T05:43:00,pst,10.09
2022-05-09T05:44:00,pst,10.07
2022-05-09T05:45:00,pst,10.09
2022-05-09T05:46:00,pst,10.08
2022-05-09T05:47:00,pst,10.08
2022-05-09T05:48:00,pst,10.14
2022-05-09T05:49:00,pst,9.37
2022-05-09T05:50:00,pst,9.53
2022-05-09T05:51:00,pst,9.50
2022-05-09T05:52:00,pst,9.50
2022-05-09T05:53:00,pst,9.50
2022-05-09T05:54:00,pst,9.59
2022-05-09T05:55:00,pst,9.65
2022-05-09T05:56:00,pst,9.65
2022-05-09T05:57:00,pst,9.64
2022-05-09T05:58:00,pst,9.63
2022-05-09T05:59:00,pst,9.62
2022-05-09T06:00:00,pst,9.58
2022-05-09T06:01:00,pst,9.55
2022-05-09T06:02:00,pst,9.49
2022-05-09T06:03:00,pst,9.76
2022-05-09T06:04:00,pst,9.71
2022-05-09T06:05:00,pst,9.71
2022-05-09T06:06:00,pst,9.72
2022-05-09T06:07:00,pst,9.58
2022-05-09T06:08:00,pst,9.41
2022-05-09T06:09:00,pst,9.46
2022-05-09T06:10:00,pst,9.49
2022-05-09T06:11:00,pst,9.45
2022-05-09T06:12:00,pst,9.39
2022-05-09T06:13:00,pst,9.53
2022-05-09T06:14:00,pst,10.15
2022-05-09T06:15:00,pst,10.12
2022-05-09T06:16:00,pst,10.05
2022-05-09T06:17:00,pst,10.03
2022-05-09T06:18:00,pst,10.10
2022-05-09T06:19:00,pst,10.15
2022-05-09T06:20:00,pst,10.06
2022-05-09T06:21:00,pst,10.05
2022-05-09T06:22:00,pst,10.23
2022-05-09T06:23:00,pst,9.53
2022-05-09T06:24:00,pst,9.54
2022-05-09T06:25:00,pst,9.53
2022-05-09T06:26:00,pst,9.52
2022-05-09T06:27:00,pst,9.52
2022-05-09T06:28:00,pst,9.52
2022-05-09T06:29:00,pst,9.41
2022-05-09T06:30:00,pst,9.51
2022-05-09T06:31:00,pst,9.59
2022-05-09T06:32:00,pst,9.59
2022-05-09T06:33:00,pst,9.51
2022-05-09T06:34:00,pst,9.42
2022-05-09T06:35:00,pst,9.38
2022-05-09T06:36:00,pst,9.35
2022-05-09T06:37:00,pst,9.27
2022-05-09T06:38:00,pst,9.25
2022-05-09T06:39:00,pst,9.83
2022-05-09T06:40:00,pst,9.17
2022-05-09T06:41:00,pst,9.08
2022-05-09T06:42:00,pst,9.07
2022-05-09T06:43:00,pst,9.16
2022-05-09T06:44:00,pst,9.18
2022-05-09T06:45:00,pst,9.17
2022-05-09T06:46:00,pst,9.19
2022-05-09T06:47:00,pst,9.15
2022-05-09T06:48:00,pst,9.82
2022-05-09T06:49:00,pst,9.77
2022-05-09T06:50:00,pst,9.82
2022-05-09T06:51:00,pst,9.82
2022-05-09T06:52:00,pst,9.99
2022-05-09T06:53:00,pst,9.97
2022-05-09T06:54:00,pst,9.92
2022-05-09T06:55:00,pst,10.17
2022-05-09T06:56:00,pst,10.16
2022-05-09T06:57:00,pst,10.12
2022-05-09T06:58:00,pst,9.39
2022-05-09T06:59:00,pst,9.37
2022-05-09T07:00:00,pst,9.32
2022-05-09T07:01:00,pst,9.38
2022-05-09T07:02:00,pst,9.40
2022-05-09T07:03:00,pst,9.41
2022-05-09T07:04:00,pst,9.46
2022-05-09T07:05:00,pst,9.49
2022-05-09T07:06:00,pst,18.42
2022-05-09T07:07:00,pst,18.05
2022-05-09T07:08:00,pst,17.98
2022-05-09T07:09:00,pst,17.86
2022-05-09T07:10:00,pst,9.39
2022-05-09T07:11:00,pst,9.24
2022-05-09T07:12:00,pst,9.26
2022-05-09T07:13:00,pst,9.31
2022-05-09T07:14:00,pst,9.35
2022-05-09T07:15:00,pst,9.35
2022-05-09T07:16:00,pst,9.55
2022-05-09T07:17:00,pst,9.61
2022-05-09T07:18:00,pst,9.48
2022-05-09T07:19:00,pst,9.39
2022-05-09T07:20:00,pst,9.35
2022-05-09T07:21:00,pst,9.35
2022-05-09T07:22:00,pst,9.45
2022-05-09T07:23:00,pst,9.47
2022-05-09T07:24:00,pst,9.59
2022-05-09T07:25:00,pst,9.78
2022-05-09T07:26:00,pst,9.63
2022-05-09T07:27:00,pst,9.70
2022-05-09T07:28:00,pst,9.81
2022-05-09T07:29:00,pst,9.75
2022-05-09T07:30:00,pst,10.38
2022-05-09T07:31:00,pst,10.45
2022-05-09T07:32:00,pst,10.33
2022-05-09T07:33:00,pst,10.32
2022-05-09T07:34:00,pst,10.42
2022-05-09T07:35:00,pst,10.48
2022-05-09T07:36:00,pst,10.42
2022-05-09T07:37:00,pst,10.46
2022-05-09T07:38:00,pst,9.91
2022-05-09T07:39:00,pst,9.08
2022-05-09T07:40:00,pst,9.04
2022-05-09T07:41:00,pst,8.99
2022-05-09T07:42:00,pst,8.85
2022-05-09T07:43:00,pst,8.84
2022-05-09T07:44:00,pst,8.94
2022-05-09T07:45:00,pst,8.94
2022-05-09T07:46:00,pst,8.96
2022-05-09T07:47:00,pst,9.03
2022-05-09T07:48:00,pst,8.71
2022-05-09T07:49:00,pst,8.61
2022-05-09T07:50:00,pst,8.50
2022-05-09T07:51:00,pst,8.56
2022-05-09T07:52:00,pst,8.32
2022-05-09T07:53:00,pst,8.51
2022-05-09T07:54:00,pst,8.54
2022-05-09T07:55:00,pst,8.67
2022-05-09T07:56:00,pst,8.89
2022-05-09T07:57:00,pst,8.78
2022-05-09T07:58:00,pst,8.73
2022-05-09T07:59:00,pst,8.74
2022-05-09T08:00:00,pst,8.62
2022-05-09T08:01:00,pst,8.61
2022-05-09T08:02:00,pst,8.84
2022-05-09T08:03:00,pst,9.48
2022-05-09T08:04:00,pst,9.41
2022-05-09T08:05:00,pst,9.42
2022-05-09T08:06:00,pst,9.40
2022-05-09T08:07:00,pst,9.33
2022-05-09T08:08:00,pst,9.26
2022-05-09T08:09:00,pst,9.34
2022-05-09T08:10:00,pst,9.22
2022-05-09T08:11:00,pst,9.22
2022-05-09T08:12:00,pst,9.07
2022-05-09T08:13:00,pst,9.21
2022-05-09T08:14:00,pst,9.29
2022-05-09T08:15:00,pst,8.57
2022-05-09T08:16:00,pst,8.62
2022-05-09T08:17:00,pst,8.91
2022-05-09T08:18:00,pst,8.43
2022-05-09T08:19:00,pst,8.49
2022-05-09T08:20:00,pst,8.41
2022-05-09T08:21:00,pst,8.36
2022-05-09T08:22:00,pst,8.35
2022-05-09T08:23:00,pst,8.28
2022-05-09T08:24:00,pst,8.28
2022-05-09T08:25:00,pst,8.26
2022-05-09T08:26:00,pst,8.44
2022-05-09T08:27:00,pst,8.55
2022-05-09T08:28:00,pst,8.60
2022-05-09T08:29:00,pst,8.60
2022-05-09T08:30:00,pst,8.59
2022-05-09T08:31:00,pst,8.60
2022-05-09T08:32:00,pst,8.79
2022-05-09T08:33:00,pst,8.77
2022-05-09T08:34:00,pst,8.57
2022-05-09T08:35:00,pst,8.61
2022-05-09T08:36:00,pst,8.60
2022-05-09T08:37:00,pst,8.59
2022-05-09T08:38:00,pst,8.45
2022-05-09T08:39:00,pst,8.44
2022-05-09T08:40:00,pst,8.57
2022-05-09T08:41:00,pst,8.54
2022-05-09T08:42:00,pst,8.37
2022-05-09T08:43:00,pst,8.45
2022-05-09T08:44:00,pst,8.31
2022-05-09T08:45:00,pst,8.24
2022-05-09T08:46:00,pst,8.31
2022-05-09T08:47:00,pst,8.35
2022-05-09T08:48:00,pst,8.35
2022-05-09T08:49:00,pst,17.21
2022-05-09T08:50:00,pst,17.02
2022-05-09T08:51:00,pst,16.99
2022-05-09T08:52:00,pst,16.87
2022-05-09T08:53:00,pst,8.50
2022-05-09T08:54:00,pst,8.38
2022-05-09T08:55:00,pst,7.08
2022-05-09T08:56:00,pst,7.25
2022-05-09T08:57:00,pst,7.24
2022-05-09T08:58:00,pst,7.25
2022-05-09T08:59:00,pst,7.43
2022-05-09T09:00:00,pst,7.16
2022-05-09T09:01:00,pst,7.16
2022-05-09T09:02:00,pst,7.12
2022-05-09T09:03:00,pst,7.05
2022-05-09T09:04:00,pst,7.00
2022-05-09T09:05:00,pst,7.07
2022-05-09T09:06:00,pst,7.13
2022-05-09T09:07:00,pst,7.12
2022-05-09T09:08:00,pst,7.08
2022-05-09T09:09:00,pst,7.19
2022-05-09T09:10:00,pst,7.04
2022-05-09T09:11:00,pst,6.97
2022-05-09T09:12:00,pst,6.91
2022-05-09T09:13:00,pst,6.99
2022-05-09T09:14:00,pst,6.94
2022-05-09T09:15:00,pst,6.96
2022-05-09T09:16:00,pst,6.86
2022-05-09T09:17:00,pst,6.90
2022-05-09T09:18:00,pst,7.04
2022-05-09T09:19:00,pst,7.05
2022-05-09T09:20:00,pst,7.18
2022-05-09T09:21:00,pst,7.14
2022-05-09T09:22:00,pst,7.12
2022-05-09T09:23:00,pst,7.08
2022-05-09T09:24:00,pst,7.04
2022-05-09T09:25:00,pst,7.22
2022-05-09T09:26:00,pst,7.16
2022-05-09T09:27:00,pst,7.05
2022-05-09T09:28:00,pst,7.19
2022-05-09T09:29:00,pst,7.11
2022-05-09T09:30:00,pst,7.06
2022-05-09T09:31:00,pst,7.11
2022-05-09T09:32:00,pst,7.05
2022-05-09T09:33:00,pst,7.14
2022-05-09T09:34:00,pst,7.16
2022-05-09T09:35:00,pst,7.04
2022-05-09T09:36:00,pst,7.07
2022-05-09T09:37:00,pst,8.20
2022-05-09T09:38:00,pst,8.24
2022-05-09T09:39:00,pst,8.22
2022-05-09T09:40:00,pst,8.50
2022-05-09T09:41:00,pst,8.06
2022-05-09T09:42:00,pst,8.25
2022-05-09T09:43:00,pst,8.22
2022-05-09T09:44:00,pst,8.13
2022-05-09T09:45:00,pst,8.11
2022-05-09T09:46:00,pst,7.40
2022-05-09T09:47:00,pst,7.50
2022-05-09T09:48:00,pst,7.46
2022-05-09T09:49:00,pst,7.44
2022-05-09T09:50:00,pst,7.44
2022-05-09T09:51:00,pst,7.42
2022-05-09T09:52:00,pst,7.42
2022-05-09T09:53:00,pst,7.32
2022-05-09T09:54:00,pst,7.36
2022-05-09T09:55:00,pst,7.63
2022-05-09T09:56:00,pst,7.81
2022-05-09T09:57:00,pst,7.78
2022-05-09T09:58:00,pst,7.81
2022-05-09T09:59:00,pst,7.79
2022-05-09T10:00:00,pst,7.61
2022-05-09T10:01:00,pst,7.53
2022-05-09T10:02:00,pst,7.62
2022-05-09T10:03:00,pst,7.76
2022-05-09T10:04:00,pst,8.36
2022-05-09T10:05:00,pst,8.32
2022-05-09T10:06:00,pst,8.33
2022-05-09T10:07:00,pst,8.38
2022-05-09T10:08:00,pst,7.67
2022-05-09T10:09:00,pst,7.30
2022-05-09T10:10:00,pst,7.10
2022-05-09T10:11:00,pst,7.23
2022-05-09T10:12:00,pst,7.11
2022-05-09T10:13:00,pst,7.05
2022-05-09T10:14:00,pst,6.98
2022-05-09T10:15:00,pst,7.12
2022-05-09T10:16:00,pst,7.21
2022-05-09T10:17:00,pst,7.22
2022-05-09T10:18:00,pst,7.29
2022-05-09T10:19:00,pst,7.40
2022-05-09T10:20:00,pst,7.38
2022-05-09T10:21:00,pst,7.31
2022-05-09T10:22:00,pst,7.37
2022-05-09T10:23:00,pst,7.25
2022-05-09T10:24:00,pst,7.36
2022-05-09T10:25:00,pst,7.36
2022-05-09T10:26:00,pst,7.21
2022-05-09T10:27:00,pst,7.23
2022-05-09T10:28:00,pst,7.22
2022-05-09T10:29:00,pst,7.40
2022-05-09T10:30:00,pst,7.37
2022-05-09T10:31:00,pst,7.29
2022-05-09T10:32:00,pst,7.28
2022-05-09T10:33:00,pst,7.31
2022-05-09T10:34:00,pst,7.27
2022-05-09T10:35:00,pst,7.37
2022-05-09T10:36:00,pst,7.48
2022-05-09T10:37:00,pst,7.47
2022-05-09T10:38:00,pst,7.46
2022-05-09T10:39:00,pst,11.18
2022-05-09T10:40:00,pst,11.62
2022-05-09T10:41:00,pst,11.44
2022-05-09T10:42:00,pst,11.44
2022-05-09T10:43:00,pst,11.46
2022-05-09T10:44:00,pst,11.39
2022-05-09T10:45:00,pst,11.36
2022-05-09T10:46:00,pst,11.40
2022-05-09T10:47:00,pst,11.48
2022-05-09T10:48:00,pst,20.34
2022-05-09T10:49:00,pst,20.11
2022-05-09T10:50:00,pst,19.95
2022-05-09T10:51:00,pst,19.74
2022-05-09T10:52:00,pst,11.35
2022-05-09T10:53:00,pst,11.33
2022-05-09T10:54:00,pst,11.86
2022-05-09T10:55:00,pst,11.41
2022-05-09T10:56:00,pst,11.43
2022-05-09T10:57:00,pst,11.29
2022-05-09T10:58:00,pst,11.16
2022-05-09T10:59:00,pst,11.31
2022-05-09T11:00:00,pst,11.31
2022-05-09T11:01:00,pst,11.29
2022-05-09T11:02:00,pst,11.34
2022-05-09T11:03:00,pst,11.28
2022-05-09T11:04:00,pst,11.23
2022-05-09T11:05:00,pst,11.19
2022-05-09T11:06:00,pst,11.43
2022-05-09T11:07:00,pst,11.42
2022-05-09T11:08:00,pst,11.39
2022-05-09T11:09:00,pst,11.35
2022-05-09T11:10:00,pst,11.39
2022-05-09T11:11:00,pst,11.42
2022-05-09T11:12:00,pst,11.34
2022-05-09T11:13:00,pst,11.45
2022-05-09T11:14:00,pst,11.49
2022-05-09T11:15:00,pst,11.77
2022-05-09T11:16:00,pst,13.54
2022-05-09T11:17:00,pst,14.00
2022-05-09T11:18:00,pst,12.42
2022-05-09T11:19:00,pst,12.43
2022-05-09T11:20:00,pst,14.18
2022-05-09T11:21:00,pst,10.82
2022-05-09T11:22:00,pst,9.76
2022-05-09T11:23:00,pst,13.76
2022-05-09T11:24:00,pst,13.75
2022-05-09T11:25:00,pst,13.60
2022-05-09T11:26:00,pst,9.88
2022-05-09T11:27:00,pst,13.65
2022-05-09T11:28:00,pst,13.54
2022-05-09T11:29:00,pst,13.40
2022-05-09T11:30:00,pst,9.78
2022-05-09T11:31:00,pst,9.88
2022-05-09T11:32:00,pst,13.79
2022-05-09T11:33:00,pst,13.46
2022-05-09T11:34:00,pst,9.75
2022-05-09T11:35:00,pst,9.79
2022-05-09T11:36:00,pst,13.65
2022-05-09T11:37:00,pst,9.71
2022-05-09T11:38:00,pst,7.86
2022-05-09T11:39:00,pst,7.91
2022-05-09T11:40:00,pst,8.11
2022-05-09T11:41:00,pst,8.74
2022-05-09T11:42:00,pst,8.66
2022-05-09T11:43:00,pst,8.53
2022-05-09T11:44:00,pst,21.44
2022-05-09T11:45:00,pst,8.25
2022-05-09T11:46:00,pst,8.13
2022-05-09T11:47:00,pst,8.15
2022-05-09T11:48:00,pst,8.11
2022-05-09T11:49:00,pst,8.12
2022-05-09T11:50:00,pst,8.11
2022-05-09T11:51:00,pst,8.12
2022-05-09T11:52:00,pst,8.25
2022-05-09T11:53:00,pst,8.32
2022-05-09T11:54:00,pst,8.50
2022-05-09T11:55:00,pst,8.29
2022-05-09T11:56:00,pst,8.32
2022-05-09T11:57:00,pst,8.31
2022-05-09T11:58:00,pst,8.33
2022-05-09T11:59:00,pst,8.28
2022-05-09T12:00:00,pst,8.27
2022-05-09T12:01:00,pst,8.32
2022-05-09T12:02:00,pst,8.22
2022-05-09T12:03:00,pst,8.81
2022-05-09T12:04:00,pst,8.39
2022-05-09T12:05:00,pst,8.39
2022-05-09T12:06:00,pst,8.33
2022-05-09T12:07:00,pst,8.17
2022-05-09T12:08:00,pst,8.14
2022-05-09T12:09:00,pst,9.26
2022-05-09T12:10:00,pst,9.23
2022-05-09T12:11:00,pst,8.13
2022-05-09T12:12:00,pst,8.23
2022-05-09T12:13:00,pst,8.24
2022-05-09T12:14:00,pst,8.27
2022-05-09T12:15:00,pst,8.18
2022-05-09T12:16:00,pst,8.19
2022-05-09T12:17:00,pst,8.24
2022-05-09T12:18:00,pst,8.15
2022-05-09T12:19:00,pst,8.10
2022-05-09T12:20:00,pst,8.08
2022-05-09T12:21:00,pst,8.11
2022-05-09T12:22:00,pst,8.27
2022-05-09T12:23:00,pst,8.20
2022-05-09T12:24:00,pst,8.16
2022-05-09T12:25:00,pst,8.16
2022-05-09T12:26:00,pst,8.14
2022-05-09T12:27:00,pst,8.09
2022-05-09T12:28:00,pst,8.37
2022-05-09T12:29:00,pst,8.24
2022-05-09T12:30:00,pst,7.00
2022-05-09T12:31:00,pst,7.00
2022-05-09T12:32:00,pst,6.85
2022-05-09T12:33:00,pst,6.85
2022-05-09T12:34:00,pst,6.84
2022-05-09T12:35:00,pst,7.98
2022-05-09T12:36:00,pst,8.12
2022-05-09T12:37:00,pst,7.96
2022-05-09T12:38:00,pst,7.94
2022-05-09T12:39:00,pst,7.99
2022-05-09T12:40:00,pst,6.88
2022-05-09T12:41:00,pst,6.85
2022-05-09T12:42:00,pst,7.00
2022-05-09T12:43:00,pst,7.09
2022-05-09T12:44:00,pst,7.02
2022-05-09T12:45:00,pst,7.05
2022-05-09T12:46:00,pst,7.27
2022-05-09T12:47:00,pst,7.37
2022-05-09T12:48:00,pst,7.35
2022-05-09T12:49:00,pst,7.24
2022-05-09T12:50:00,pst,7.35
2022-05-09T12:51:00,pst,16.00
2022-05-09T12:52:00,pst,16.68
2022-05-09T12:53:00,pst,17.51
2022-05-09T12:54:00,pst,16.86
2022-05-09T12:55:00,pst,8.48
2022-05-09T12:56:00,pst,8.45
2022-05-09T12:57:00,pst,8.35
2022-05-09T12:58:00,pst,8.41
2022-05-09T12:59:00,pst,8.35
2022-05-09T13:00:00,pst,7.67
2022-05-09T13:01:00,pst,7.76
2022-05-09T13:02:00,pst,7.75
2022-05-09T13:03:00,pst,7.74
2022-05-09T13:04:00,pst,7.73
2022-05-09T13:05:00,pst,7.74
2022-05-09T13:06:00,pst,7.52
2022-05-09T13:07:00,pst,7.44
2022-05-09T13:08:00,pst,7.44
2022-05-09T13:09:00,pst,7.16
2022-05-09T13:10:00,pst,7.22
2022-05-09T13:11:00,pst,7.17
2022-05-09T13:12:00,pst,7.24
2022-05-09T13:13:00,pst,7.39
2022-05-09T13:14:00,pst,7.33
2022-05-09T13:15:00,pst,7.39
2022-05-09T13:16:00,pst,7.20
2022-05-09T13:17:00,pst,7.31
2022-05-09T13:18:00,pst,7.32
2022-05-09T13:19:00,pst,7.35
2022-05-09T13:20:00,pst,7.35
2022-05-09T13:21:00,pst,7.57
2022-05-09T13:22:00,pst,7.48
2022-05-09T13:23:00,pst,7.42
2022-05-09T13:24:00,pst,7.43
2022-05-09T13:25:00,pst,7.49
2022-05-09T13:26:00,pst,7.31
2022-05-09T13:27:00,pst,7.36
2022-05-09T13:28:00,pst,7.44
2022-05-09T13:29:00,pst,7.38
2022-05-09T13:30:00,pst,7.33
2022-05-09T13:31:00,pst,7.33